| time (UTC) | temp C | wind direction | speed KPH | gust KPH | rain 1hr cm | rain 24hr cm | rain mn cm | humidity % | barometer mb |
| 20260502214024 | 20 | 45 | 4.8 | 9.7 | 0.00 | 0.00 | 0.00 | 60 | 1013.3 |
| 20260502213504 | 21 | 338 | 3.2 | 9.7 | 0.00 | 0.00 | 0.00 | 59 | 1013.3 |
| 20260502213004 | 21 | 338 | 3.2 | 6.4 | 0.00 | 0.00 | 0.00 | 58 | 1013.3 |
| 20260502212504 | 21 | 225 | 1.6 | 4.8 | 0.00 | 0.00 | 0.00 | 59 | 1013.3 |
| 20260502212004 | 21 | 315 | 3.2 | 6.4 | 0.00 | 0.00 | 0.00 | 59 | 1013.4 |
| 20260502211504 | 21 | 315 | 3.2 | 9.7 | 0.00 | 0.00 | 0.00 | 60 | 1013.4 |
| 20260502211024 | 20 | 225 | 3.2 | 6.4 | 0.00 | 0.00 | 0.00 | 61 | 1013.4 |
| 20260502210504 | 20 | 45 | 3.2 | 9.7 | 0.00 | 0.00 | 0.00 | 60 | 1013.4 |
| 20260502210004 | 20 | 338 | 3.2 | 9.7 | 0.00 | 0.00 | 0.00 | 60 | 1013.5 |
| 20260502205504 | 21 | 225 | 3.2 | 6.4 | 0.00 | 0.00 | 0.00 | 60 | 1013.6 |
| 20260502205003 | 20 | 338 | 3.2 | 9.7 | 0.00 | 0.00 | 0.00 | 61 | 1013.9 |
| 20260502204504 | 20 | 315 | 3.2 | 8.0 | 0.00 | 0.00 | 0.00 | 61 | 1013.8 |
| 20260502204004 | 20 | 338 | 4.8 | 9.7 | 0.00 | 0.00 | 0.00 | 61 | 1013.8 |
| 20260502203504 | 20 | 338 | 3.2 | 9.7 | 0.00 | 0.00 | 0.00 | 62 | 1014.0 |
| 20260502203004 | 20 | 248 | 3.2 | 9.7 | 0.00 | 0.00 | 0.00 | 63 | 1014.0 |
| 20260502202503 | 20 | 225 | 4.8 | 12.9 | 0.00 | 0.00 | 0.00 | 62 | 1014.0 |
| 20260502202004 | 20 | 225 | 4.8 | 9.7 | 0.00 | 0.00 | 0.00 | 63 | 1014.0 |
| 20260502201503 | 20 | 338 | 3.2 | 9.7 | 0.00 | 0.00 | 0.00 | 63 | 1014.1 |
| 20260502201004 | 20 | 225 | 6.4 | 12.9 | 0.00 | 0.00 | 0.00 | 63 | 1014.2 |
| 20260502200504 | 20 | 315 | 3.2 | 9.7 | 0.00 | 0.00 | 0.00 | 63 | 1014.3 |
| 20260502200004 | 19 | 315 | 6.4 | 12.9 | 0.00 | 0.00 | 0.00 | 63 | 1014.5 |
| 20260502195504 | 19 | 315 | 6.4 | 12.9 | 0.00 | 0.00 | 0.00 | 64 | 1014.6 |
| 20260502195004 | 19 | 315 | 4.8 | 14.5 | 0.00 | 0.00 | 0.00 | 63 | 1014.5 |
| 20260502194504 | 19 | 293 | 3.2 | 8.0 | 0.00 | 0.00 | 0.00 | 66 | 1014.5 |
| 20260502194024 | 18 | 225 | 4.8 | 11.3 | 0.00 | 0.00 | 0.00 | 66 | 1014.6 |
| 20260502193503 | 18 | 248 | 4.8 | 14.5 | 0.00 | 0.00 | 0.00 | 66 | 1014.5 |
| 20260502193003 | 18 | 225 | 3.2 | 11.3 | 0.00 | 0.00 | 0.00 | 67 | 1014.6 |
| 20260502192503 | 18 | 293 | 4.8 | 12.9 | 0.00 | 0.00 | 0.00 | 67 | 1014.6 |
| 20260502192004 | 18 | 225 | 6.4 | 19.3 | 0.00 | 0.00 | 0.00 | 67 | 1014.5 |
| 20260502191503 | 17 | 248 | 4.8 | 11.3 | 0.00 | 0.00 | 0.00 | 68 | 1014.6 |
| 20260502191004 | 17 | 248 | 4.8 | 11.3 | 0.00 | 0.00 | 0.00 | 67 | 1014.7 |
| 20260502190504 | 18 | 248 | 4.8 | 11.3 | 0.00 | 0.00 | 0.00 | 67 | 1014.6 |
| 20260502190004 | 17 | 315 | 3.2 | 14.5 | 0.00 | 0.00 | 0.00 | 68 | 1014.8 |
| 20260502185503 | 17 | 315 | 4.8 | 11.3 | 0.00 | 0.00 | 0.00 | 69 | 1014.7 |
| 20260502185004 | 17 | 315 | 3.2 | 9.7 | 0.00 | 0.00 | 0.00 | 68 | 1014.8 |
| 20260502184504 | 17 | 293 | 4.8 | 12.9 | 0.00 | 0.00 | 0.00 | 68 | 1014.8 |
| 20260502184003 | 17 | 293 | 3.2 | 9.7 | 0.00 | 0.00 | 0.00 | 68 | 1014.8 |
| 20260502183504 | 17 | 225 | 4.8 | 12.9 | 0.00 | 0.00 | 0.00 | 68 | 1014.7 |
| 20260502183023 | 17 | 270 | 3.2 | 11.3 | 0.00 | 0.00 | 0.00 | 68 | 1014.7 |
| 20260502182003 | 17 | 293 | 3.2 | 9.7 | 0.00 | 0.00 | 0.00 | 69 | 1014.6 |
| 20260502181524 | 17 | 315 | 3.2 | 9.7 | 0.00 | 0.00 | 0.00 | 69 | 1014.6 |
| 20260502181004 | 17 | 315 | 3.2 | 9.7 | 0.00 | 0.00 | 0.00 | 71 | 1014.7 |
| 20260502180504 | 16 | 225 | 3.2 | 6.4 | 0.00 | 0.00 | 0.00 | 72 | 1014.7 |
| 20260502170504 | 15 | 293 | 3.2 | 8.0 | 0.00 | 0.00 | 0.00 | 78 | 1014.7 |
| 20260502164003 | 14 | 248 | 3.2 | 8.0 | 0.00 | 0.00 | 0.00 | 79 | 1014.7 |
| 20260502163523 | 14 | 248 | 3.2 | 8.0 | 0.00 | 0.00 | 0.00 | 79 | 1014.7 |
| 20260502163003 | 14 | 225 | 3.2 | 8.0 | 0.00 | 0.00 | 0.00 | 79 | 1014.6 |
| 20260502162523 | 13 | 293 | 3.2 | 12.9 | 0.00 | 0.00 | 0.00 | 80 | 1014.6 |
| 20260502162003 | 13 | 270 | 3.2 | 12.9 | 0.00 | 0.00 | 0.00 | 80 | 1014.6 |
| 20260502161504 | 13 | 225 | 3.2 | 11.3 | 0.00 | 0.00 | 0.00 | 80 | 1014.6 |
| 20260502161003 | 13 | 248 | 3.2 | 8.0 | 0.00 | 0.00 | 0.00 | 79 | 1014.6 |
| 20260502160503 | 13 | 225 | 3.2 | 9.7 | 0.00 | 0.00 | 0.00 | 79 | 1014.6 |
| 20260502152003 | 13 | 270 | 1.6 | 8.0 | 0.00 | 0.00 | 0.00 | 80 | 1014.0 |
| 20260502151503 | 13 | 270 | 1.6 | 8.0 | 0.00 | 0.00 | 0.00 | 80 | 1014.1 |
| 20260502151003 | 13 | 270 | 3.2 | 8.0 | 0.00 | 0.00 | 0.00 | 81 | 1014.0 |
| 20260502150503 | 13 | 248 | 1.6 | 4.8 | 0.00 | 0.00 | 0.00 | 81 | 1014.0 |
| 20260502130503 | 13 | 270 | 1.6 | 4.8 | 0.00 | 0.00 | 0.00 | 83 | 1013.2 |
| 20260502123505 | 13 | 248 | 1.6 | 3.2 | 0.00 | 0.00 | 0.00 | 83 | 1013.1 |
| 20260502123004 | 13 | 225 | 1.6 | 4.8 | 0.00 | 0.00 | 0.00 | 83 | 1013.0 |
| 20260502122505 | 13 | 248 | 1.6 | 6.4 | 0.00 | 0.00 | 0.00 | 84 | 1013.0 |
| 20260502122005 | 13 | 0.0 | 3.2 | 0.00 | 0.00 | 0.00 | 84 | 1012.9 | |
| 20260502121505 | 13 | 225 | 1.6 | 4.8 | 0.00 | 0.00 | 0.00 | 84 | 1013.1 |
| 20260502121005 | 13 | 225 | 1.6 | 4.8 | 0.00 | 0.00 | 0.00 | 84 | 1013.0 |
| 20260502120504 | 13 | 0.0 | 1.6 | 0.00 | 0.00 | 0.00 | 84 | 1013.1 | |
| 20260502115505 | 13 | 338 | 1.6 | 4.8 | 0.00 | 0.00 | 0.00 | 84 | 1013.1 |
| 20260502115045 | 13 | 315 | 1.6 | 3.2 | 0.00 | 0.00 | 0.00 | 84 | 1013.1 |
| 20260502114005 | 13 | 0.0 | 3.2 | 0.00 | 0.00 | 0.00 | 83 | 1013.1 | |
| 20260502113504 | 13 | 0 | 1.6 | 4.8 | 0.00 | 0.00 | 0.00 | 83 | 1013.2 |
| 20260502113004 | 13 | 338 | 1.6 | 4.8 | 0.00 | 0.00 | 0.00 | 83 | 1013.1 |
| 20260502112530 | 13 | 315 | 1.6 | 4.8 | 0.00 | 0.00 | 0.00 | 83 | 1013.1 |
| 20260502112005 | 13 | 338 | 1.6 | 4.8 | 0.00 | 0.00 | 0.00 | 83 | 1013.1 |
| 20260502111524 | 13 | 315 | 1.6 | 3.2 | 0.00 | 0.00 | 0.00 | 84 | 1013.0 |
| 20260502111005 | 13 | 338 | 1.6 | 3.2 | 0.00 | 0.00 | 0.00 | 84 | 1013.1 |
| 20260502110504 | 13 | 338 | 1.6 | 3.2 | 0.00 | 0.00 | 0.00 | 84 | 1013.2 |
| 20260502110005 | 13 | 0.0 | 1.6 | 0.00 | 0.00 | 0.00 | 84 | 1013.1 | |
| 20260502105504 | 13 | 0.0 | 1.6 | 0.00 | 0.00 | 0.00 | 84 | 1013.2 | |
| 20260502105004 | 13 | 0.0 | 1.6 | 0.00 | 0.00 | 0.00 | 85 | 1013.3 | |
| 20260502104524 | 13 | 0.0 | 1.6 | 0.00 | 0.00 | 0.00 | 85 | 1013.1 | |
| 20260502104004 | 13 | 293 | 1.6 | 3.2 | 0.00 | 0.00 | 0.00 | 85 | 1013.2 |
| 20260502103504 | 13 | 315 | 1.6 | 3.2 | 0.00 | 0.00 | 0.00 | 85 | 1013.2 |
| 20260502103024 | 13 | 315 | 1.6 | 3.2 | 0.00 | 0.00 | 0.00 | 86 | 1013.3 |
| 20260502102505 | 13 | 315 | 1.6 | 3.2 | 0.00 | 0.00 | 0.00 | 86 | 1013.4 |
| 20260502102004 | 13 | 0.0 | 4.8 | 0.00 | 0.00 | 0.00 | 86 | 1013.2 | |
| 20260502101504 | 13 | 0.0 | 1.6 | 0.00 | 0.00 | 0.00 | 86 | 1013.3 | |
| 20260502101004 | 13 | 293 | 1.6 | 4.8 | 0.00 | 0.00 | 0.00 | 86 | 1013.4 |
| 20260502100505 | 13 | 315 | 1.6 | 4.8 | 0.00 | 0.00 | 0.00 | 87 | 1013.4 |
| 20260502091504 | 13 | 0.0 | 3.2 | 0.00 | 0.00 | 0.00 | 89 | 1013.9 | |
| 20260502091004 | 13 | 225 | 1.6 | 3.2 | 0.00 | 0.00 | 0.00 | 89 | 1013.8 |
| 20260502090504 | 12 | 0.0 | 3.2 | 0.00 | 0.00 | 0.00 | 89 | 1013.9 | |
| 20260502071504 | 11 | 0.0 | 1.6 | 0.00 | 0.00 | 0.00 | 87 | 1014.2 | |
| 20260502071004 | 11 | 0.0 | 1.6 | 0.00 | 0.00 | 0.00 | 87 | 1014.1 | |
| 20260502070504 | 11 | 0.0 | 1.6 | 0.00 | 0.00 | 0.00 | 87 | 1014.3 | |
| 20260502070005 | 11 | 0.0 | 1.6 | 0.00 | 0.00 | 0.00 | 87 | 1014.3 | |
| 20260502065504 | 11 | 0.0 | 1.6 | 0.00 | 0.00 | 0.00 | 87 | 1014.3 | |
| 20260502065004 | 11 | 0.0 | 1.6 | 0.00 | 0.00 | 0.00 | 87 | 1014.3 | |
| 20260502064504 | 11 | 0.0 | 1.6 | 0.00 | 0.00 | 0.00 | 87 | 1014.3 | |
| 20260502064004 | 11 | 0.0 | 1.6 | 0.00 | 0.00 | 0.00 | 87 | 1014.3 | |
| 20260502063524 | 11 | 0.0 | 1.6 | 0.00 | 0.00 | 0.00 | 86 | 1014.3 | |
| 20260502063004 | 11 | 0.0 | 1.6 | 0.00 | 0.00 | 0.00 | 86 | 1014.4 | |
| 20260502062524 | 11 | 0.0 | 1.6 | 0.00 | 0.00 | 0.00 | 86 | 1014.3 | |
| 20260502062003 | 11 | 0.0 | 1.6 | 0.00 | 0.00 | 0.00 | 86 | 1014.5 | |
| 20260502061524 | 12 | 0.0 | 1.6 | 0.00 | 0.00 | 0.00 | 85 | 1014.4 | |
| 20260502061004 | 12 | 0.0 | 1.6 | 0.00 | 0.00 | 0.00 | 85 | 1014.3 | |
| 20260502060504 | 12 | 0.0 | 1.6 | 0.00 | 0.00 | 0.00 | 85 | 1014.3 | |
| 20260502060004 | 12 | 0.0 | 1.6 | 0.00 | 0.00 | 0.00 | 84 | 1014.4 | |
| 20260502055503 | 12 | 0.0 | 1.6 | 0.00 | 0.00 | 0.00 | 84 | 1014.4 | |
| 20260502055009 | 12 | 0.0 | 1.6 | 0.00 | 0.00 | 0.00 | 84 | 1014.5 | |
| 20260502054504 | 12 | 0.0 | 1.6 | 0.00 | 0.00 | 0.00 | 84 | 1014.5 | |
| 20260502054004 | 12 | 0.0 | 1.6 | 0.00 | 0.00 | 0.00 | 84 | 1014.5 | |
| 20260502053503 | 12 | 0.0 | 3.2 | 0.00 | 0.00 | 0.00 | 84 | 1014.6 | |
| 20260502053004 | 12 | 0 | 1.6 | 3.2 | 0.00 | 0.00 | 0.00 | 84 | 1014.5 |
| 20260502052524 | 12 | 0 | 1.6 | 3.2 | 0.00 | 0.00 | 0.00 | 84 | 1014.5 |
| 20260502052044 | 12 | 45 | 1.6 | 3.2 | 0.00 | 0.00 | 0.00 | 84 | 1014.5 |
| 20260502051504 | 12 | 0.0 | 1.6 | 0.00 | 0.00 | 0.00 | 84 | 1014.5 | |
| 20260502051004 | 12 | 0.0 | 1.6 | 0.00 | 0.00 | 0.00 | 84 | 1014.4 | |
| 20260502050504 | 12 | 0.0 | 3.2 | 0.00 | 0.00 | 0.00 | 83 | 1014.5 | |
| 20260502045504 | 12 | 0.0 | 3.2 | 0.00 | 0.00 | 0.00 | 83 | 1014.4 | |
| 20260502045024 | 13 | 45 | 1.6 | 3.2 | 0.00 | 0.00 | 0.00 | 83 | 1014.3 |
| 20260502044504 | 13 | 45 | 1.6 | 3.2 | 0.00 | 0.00 | 0.00 | 83 | 1014.4 |
| 20260502044004 | 13 | 45 | 1.6 | 4.8 | 0.00 | 0.00 | 0.00 | 83 | 1014.2 |
| 20260502043503 | 13 | 45 | 3.2 | 6.4 | 0.00 | 0.00 | 0.00 | 82 | 1014.2 |
| 20260502043003 | 13 | 45 | 1.6 | 4.8 | 0.00 | 0.00 | 0.00 | 82 | 1014.1 |
| 20260502042504 | 13 | 45 | 1.6 | 4.8 | 0.00 | 0.00 | 0.00 | 82 | 1014.0 |
| 20260502042003 | 13 | 45 | 3.2 | 6.4 | 0.00 | 0.00 | 0.00 | 81 | 1014.0 |
| 20260502041503 | 13 | 45 | 1.6 | 4.8 | 0.00 | 0.00 | 0.00 | 81 | 1014.0 |
| 20260502041003 | 13 | 45 | 1.6 | 6.4 | 0.00 | 0.00 | 0.00 | 81 | 1013.9 |
| 20260502040504 | 13 | 45 | 1.6 | 4.8 | 0.00 | 0.00 | 0.00 | 81 | 1013.9 |
| 20260502040003 | 13 | 45 | 3.2 | 6.4 | 0.00 | 0.00 | 0.00 | 80 | 1013.8 |
| 20260502035504 | 13 | 45 | 1.6 | 6.4 | 0.00 | 0.00 | 0.00 | 80 | 1013.7 |
| 20260502035004 | 13 | 45 | 3.2 | 8.0 | 0.00 | 0.00 | 0.00 | 80 | 1013.7 |
| 20260502034503 | 13 | 45 | 3.2 | 6.4 | 0.00 | 0.00 | 0.00 | 79 | 1013.5 |
| 20260502034003 | 13 | 45 | 3.2 | 8.0 | 0.00 | 0.00 | 0.00 | 79 | 1013.5 |
| 20260502033524 | 13 | 45 | 1.6 | 6.4 | 0.00 | 0.00 | 0.00 | 78 | 1013.4 |
| 20260502033003 | 14 | 45 | 3.2 | 6.4 | 0.00 | 0.00 | 0.00 | 78 | 1013.3 |
| 20260502032504 | 14 | 45 | 3.2 | 6.4 | 0.00 | 0.00 | 0.00 | 78 | 1013.2 |
| 20260502032003 | 14 | 338 | 3.2 | 11.3 | 0.00 | 0.00 | 0.00 | 77 | 1013.2 |
| 20260502031504 | 14 | 45 | 3.2 | 8.0 | 0.00 | 0.00 | 0.00 | 77 | 1013.1 |
| 20260502031004 | 15 | 0 | 3.2 | 11.3 | 0.00 | 0.00 | 0.00 | 76 | 1013.1 |
| 20260502030504 | 15 | 0 | 1.6 | 8.0 | 0.00 | 0.00 | 0.00 | 76 | 1013.0 |
| 20260502030003 | 15 | 45 | 3.2 | 6.4 | 0.00 | 0.00 | 0.00 | 75 | 1012.9 |
| 20260502025544 | 15 | 45 | 3.2 | 6.4 | 0.00 | 0.00 | 0.00 | 75 | 1012.9 |
| 20260502025003 | 15 | 338 | 1.6 | 6.4 | 0.00 | 0.00 | 0.00 | 74 | 1012.7 |
| 20260502024544 | 15 | 45 | 3.2 | 8.0 | 0.00 | 0.00 | 0.00 | 73 | 1012.8 |
| 20260502024003 | 15 | 338 | 3.2 | 8.0 | 0.00 | 0.00 | 0.00 | 73 | 1012.7 |
| 20260502023504 | 16 | 45 | 3.2 | 9.7 | 0.00 | 0.00 | 0.00 | 72 | 1012.7 |
| 20260502023003 | 16 | 45 | 3.2 | 12.9 | 0.00 | 0.00 | 0.00 | 72 | 1012.7 |
| 20260502022523 | 16 | 45 | 4.8 | 12.9 | 0.00 | 0.00 | 0.00 | 72 | 1012.6 |
| 20260502022043 | 16 | 45 | 4.8 | 11.3 | 0.00 | 0.00 | 0.00 | 72 | 1012.6 |
| 20260502021523 | 16 | 45 | 4.8 | 11.3 | 0.00 | 0.00 | 0.00 | 72 | 1012.6 |
| 20260502021003 | 16 | 45 | 4.8 | 11.3 | 0.00 | 0.00 | 0.00 | 72 | 1012.6 |
| 20260502020504 | 16 | 45 | 4.8 | 11.3 | 0.00 | 0.00 | 0.00 | 72 | 1012.6 |
| 20260502020003 | 16 | 45 | 3.2 | 11.3 | 0.00 | 0.00 | 0.00 | 73 | 1012.5 |
| 20260502015503 | 16 | 45 | 4.8 | 11.3 | 0.00 | 0.00 | 0.00 | 74 | 1012.5 |
| 20260502015003 | 17 | 45 | 4.8 | 14.5 | 0.00 | 0.00 | 0.00 | 76 | 1012.6 |
| 20260502014503 | 17 | 45 | 6.4 | 11.3 | 0.00 | 0.00 | 0.00 | 75 | 1012.6 |
| 20260502014003 | 17 | 45 | 6.4 | 12.9 | 0.00 | 0.00 | 0.00 | 75 | 1012.5 |
| 20260502013503 | 17 | 45 | 4.8 | 11.3 | 0.00 | 0.00 | 0.00 | 74 | 1012.6 |
| 20260502013003 | 17 | 45 | 4.8 | 12.9 | 0.00 | 0.00 | 0.00 | 74 | 1012.5 |
| 20260502012503 | 17 | 45 | 3.2 | 9.7 | 0.00 | 0.00 | 0.00 | 75 | 1012.5 |
| 20260502012003 | 17 | 45 | 4.8 | 12.9 | 0.00 | 0.00 | 0.00 | 75 | 1012.4 |
| 20260502011523 | 17 | 45 | 6.4 | 16.1 | 0.00 | 0.00 | 0.00 | 73 | 1012.6 |
| 20260502011003 | 17 | 45 | 6.4 | 16.1 | 0.00 | 0.00 | 0.00 | 73 | 1012.6 |
| 20260502010503 | 18 | 45 | 6.4 | 14.5 | 0.00 | 0.00 | 0.00 | 72 | 1012.6 |
| 20260502010003 | 18 | 45 | 4.8 | 12.9 | 0.00 | 0.00 | 0.00 | 72 | 1012.6 |
| 20260502005543 | 18 | 45 | 6.4 | 12.9 | 0.00 | 0.00 | 0.00 | 71 | 1012.6 |
| 20260502005043 | 18 | 45 | 4.8 | 16.1 | 0.00 | 0.00 | 0.00 | 70 | 1012.5 |
| 20260502004503 | 18 | 45 | 3.2 | 11.3 | 0.00 | 0.00 | 0.00 | 71 | 1012.7 |
| 20260502004003 | 18 | 45 | 4.8 | 11.3 | 0.00 | 0.00 | 0.00 | 71 | 1012.6 |
| 20260502003503 | 18 | 45 | 4.8 | 11.3 | 0.00 | 0.00 | 0.00 | 70 | 1012.7 |
| 20260502003003 | 18 | 45 | 6.4 | 16.1 | 0.00 | 0.00 | 0.00 | 70 | 1012.6 |
| 20260502002543 | 18 | 45 | 6.4 | 14.5 | 0.00 | 0.00 | 0.00 | 69 | 1012.7 |
| 20260502002003 | 18 | 45 | 4.8 | 12.9 | 0.00 | 0.00 | 0.00 | 70 | 1012.7 |
| 20260502001503 | 18 | 45 | 6.4 | 14.5 | 0.00 | 0.00 | 0.00 | 69 | 1012.7 |
| 20260502001003 | 18 | 45 | 8.0 | 17.7 | 0.00 | 0.00 | 0.00 | 68 | 1012.7 |
| 20260502000503 | 18 | 338 | 4.8 | 12.9 | 0.00 | 0.00 | 0.00 | 69 | 1012.7 |
| 20260502000003 | 18 | 45 | 6.4 | 14.5 | 0.00 | 0.00 | 0.00 | 68 | 1012.8 |
| 20260501235503 | 18 | 45 | 4.8 | 14.5 | 0.00 | 0.00 | 0.00 | 69 | 1012.8 |
| 20260501235003 | 18 | 45 | 4.8 | 12.9 | 0.00 | 0.00 | 0.00 | 69 | 1012.9 |
| 20260501234503 | 18 | 45 | 4.8 | 12.9 | 0.00 | 0.00 | 0.00 | 69 | 1013.1 |
| 20260501234003 | 18 | 45 | 6.4 | 14.5 | 0.00 | 0.00 | 0.00 | 68 | 1013.2 |
| 20260501233503 | 18 | 45 | 4.8 | 12.9 | 0.00 | 0.00 | 0.00 | 68 | 1013.2 |
| 20260501233023 | 18 | 45 | 4.8 | 12.9 | 0.00 | 0.00 | 0.00 | 68 | 1013.1 |
| 20260501232503 | 18 | 45 | 6.4 | 11.3 | 0.00 | 0.00 | 0.00 | 68 | 1013.3 |
| 20260501232003 | 18 | 45 | 4.8 | 12.9 | 0.00 | 0.00 | 0.00 | 69 | 1013.4 |
| 20260501231503 | 18 | 45 | 6.4 | 11.3 | 0.00 | 0.00 | 0.00 | 69 | 1013.4 |
| 20260501231003 | 18 | 45 | 6.4 | 14.5 | 0.00 | 0.00 | 0.00 | 69 | 1013.5 |
| 20260501230503 | 18 | 45 | 6.4 | 14.5 | 0.00 | 0.00 | 0.00 | 68 | 1013.7 |
| 20260501230004 | 18 | 45 | 4.8 | 12.9 | 0.00 | 0.00 | 0.00 | 69 | 1013.7 |
| 20260501225503 | 18 | 23 | 6.4 | 16.1 | 0.00 | 0.00 | 0.00 | 69 | 1013.8 |
| 20260501225003 | 18 | 45 | 8.0 | 16.1 | 0.00 | 0.00 | 0.00 | 69 | 1013.8 |
| 20260501224503 | 18 | 45 | 4.8 | 14.5 | 0.00 | 0.00 | 0.00 | 69 | 1013.9 |
| 20260501224003 | 18 | 45 | 4.8 | 12.9 | 0.00 | 0.00 | 0.00 | 69 | 1013.9 |
| 20260501223505 | 19 | 23 | 6.4 | 12.9 | 0.00 | 0.00 | 0.00 | 68 | 1014.1 |
| 20260501223005 | 19 | 45 | 4.8 | 11.3 | 0.00 | 0.00 | 0.00 | 68 | 1014.3 |
| 20260501222505 | 19 | 45 | 4.8 | 14.5 | 0.00 | 0.00 | 0.00 | 69 | 1014.2 |
| 20260501222005 | 19 | 45 | 4.8 | 12.9 | 0.00 | 0.00 | 0.00 | 70 | 1014.3 |
| 20260501221505 | 18 | 45 | 4.8 | 11.3 | 0.00 | 0.00 | 0.00 | 70 | 1014.4 |
| 20260501221025 | 19 | 68 | 6.4 | 14.5 | 0.00 | 0.00 | 0.00 | 70 | 1014.5 |
| 20260501220524 | 19 | 45 | 4.8 | 12.9 | 0.00 | 0.00 | 0.00 | 70 | 1014.5 |
| 20260501220005 | 18 | 45 | 4.8 | 14.5 | 0.00 | 0.00 | 0.00 | 70 | 1014.6 |
| 20260501215525 | 18 | 68 | 4.8 | 9.7 | 0.00 | 0.00 | 0.00 | 71 | 1014.5 |
| 20260501215004 | 18 | 68 | 6.4 | 12.9 | 0.00 | 0.00 | 0.00 | 71 | 1014.6 |
| 20260501214505 | 18 | 45 | 6.4 | 12.9 | 0.00 | 0.00 | 0.00 | 70 | 1014.7 |